Regional Weather Roundup
Issued by NWS

Home | Current Version | Previous Version | Graphics & Text | Print | Product List | Glossary On
Versions: 1 2 3 4 5 6 7 8 9 10 11 12 13 14 15 16 17 18 19 20 21 22 23 24 25 26 27 28 29 30 31 32 33 34 35 36 37 38 39 40 41 42 43 44 45 46 47 48 49 50
000
ASUS43 KMKX 070700
RWRWI

WISCONSIN REGIONAL WEATHER ROUNDUP
NATIONAL WEATHER SERVICE MILWAUKEE/SULLIVAN WI
200 AM CDT TUE JUL 07 2015

NOTE: "FAIR" INDICATES FEW OR NO CLOUDS BELOW 12,000 FEET WITH NO
SIGNIFICANT WEATHER AND/OR OBSTRUCTIONS TO VISIBILITY.

WIZ001-002-006>008-014>016-023>028-070800-
NORTHWEST WISCONSIN

CITY           SKY/WX    TMP DP  RH WIND       PRES   REMARKS
SUPERIOR ARPT  CLOUDY    57  47  70 N5        30.06R
ASHLAND        PTCLDY    51  46  83 NW6       30.04S
HAYWARD        CLEAR     52  45  77 N5        30.04S
SIREN          PTCLDY    54  47  75 N5        30.05S
CUMBERLAND     PTCLDY    54  46  76 N9        30.04R
RICE LAKE      MOCLDY    56  47  71 N7        30.04S
CHETEK         CLEAR     56  50  80 N9        30.03R
LADYSMITH      CLEAR     55  50  83 N13G20    30.03R
EAU CLAIRE     MOCLDY    58  50  75 N8        30.00R
MENOMONIE      PTCLDY    58  49  74 NW10G16   30.02R
NEW RICHMOND   CLEAR     54  48  79 N8        30.05R
OSCEOLA        PTCLDY    55  48  78 NW6       30.08S
$$

WIZ003>005-009-010-017-018-070800-
NORTH CENTRAL WISCONSIN

CITY           SKY/WX    TMP DP  RH WIND       PRES   REMARKS
MANITOWISH WTR CLOUDY    52  49  89 N7        30.00R
ARBOR VITAE    CLOUDY    55  50  85 N15G22    29.98R
WOODRUFF       CLOUDY    55  50  85 N15G22    29.98R
RHINELANDER    CLOUDY    57  53  86 NW6       29.97R FOG
EAGLE RIVER    CLOUDY    55  52  88 N15G22    29.96R
LAND O LAKES   CLOUDY    54  49  83 N10G17    29.98R
PHILLIPS       PTCLDY    53  50  90 N7        29.99S
TOMAHAWK       PTCLDY    53  52  94 NW7       29.98R FOG
MEDFORD        PTCLDY    55  53  93 N10G17    29.97R FOG
MERRILL          N/A     54  54 100 N3        29.97R FOG
$$

WIZ029-030-035-036-043>047-070800-
CENTRAL WISCONSIN

CITY           SKY/WX    TMP DP  RH WIND       PRES   REMARKS
WAUSAU         MOCLDY    57  53  86 NW6       29.95R FOG
MOSINEE        PTCLDY    54  54 100 N8        29.97R FOG
MARSHFIELD     CLEAR     57  52  83 N9        29.96R HAZE
STEVENS POINT  PTCLDY    55  54  95 NW3       29.95R FOG
WAUPACA        MOCLDY    63  58  84 NW7       29.93R HAZE
WAUTOMA        NOT AVBL
WISC RAPIDS    CLEAR     58  53  84 N8        29.96R HAZE
CAMP DOUGLAS   NOT AVBL
$$

WIZ011>013-019>022-031-037>040-048>050-070800-
NORTHEAST WISCONSIN

CITY           SKY/WX    TMP DP  RH WIND       PRES   REMARKS
ANTIGO         CLOUDY    56  54  92 N12       29.95R FOG
SHAWANO        CLOUDY    62  57  82 N6        29.91S HAZE
OCONTO         CLOUDY    59  59 100 N7        29.89S
STURGEON BAY   CLOUDY    61  54  77 N20       29.91R
GREEN BAY      CLOUDY    62  57  83 N9        29.90R HAZE
MANITOWOC      RAIN      59  57  94 MISG      29.88R FOG
APPLETON       CLOUDY    61  54  77 N9        29.91R HAZE
CLINTONVILLE   CLOUDY    61  54  77 N5        29.91R HAZE
OSHKOSH        CLOUDY    61  57  87 N10       29.91R FOG
$$

WIZ032>034-041-042-053>061-070800-
SOUTHWEST WISCONSIN

CITY           SKY/WX    TMP DP  RH WIND       PRES   REMARKS
LA CROSSE      CLOUDY    60  58  92 N3        29.98R FOG
SPARTA           N/A     53  52  95 CALM      29.98R FOG
VIROQUA        PTCLDY    57  57 100 N7        29.97R
BOSCOBEL       MOCLDY    61  56  83 VRB3      29.96R HAZE
PRAIRIE DU CHI MOCLDY    62  55  76 NW5       29.96S HAZE
PLATTEVILLE    CLOUDY    61  57  87 N9        29.94R
$$

WIZ056-057-062-063-064-067-068-070800-
SOUTH CENTRAL WISCONSIN

CITY           SKY/WX    TMP DP  RH WIND       PRES   REMARKS
REEDSBURG      CLOUDY    60  57  88 N10       29.93S FOG
BARABOO/DELLS  CLOUDY    61  56  81 N7        29.93R HAZE
LONE ROCK      NOT AVBL
MINERAL POINT  MOCLDY    61  55  82 N12G17    29.93R HAZE
MADISON        CLOUDY    62  58  86 MISG      29.90S FOG
MIDDLETON      CLOUDY    63  59  86 N12G17    29.91S
WATERTOWN      CLOUDY    60  60 100 N16G24    29.87R
MONROE         CLOUDY    61  59  94 N14G20    29.90R
JANESVILLE     LGT RAIN  63  61  94 N10G17    29.87R
$$

WIZ051-052-058>065-066-070>072-070800-
SOUTHEAST WISCONSIN

CITY           SKY/WX    TMP DP  RH WIND       PRES   REMARKS
MILWAUKEE      LGT RAIN  61  59  93 N10       29.84R
WAUKESHA       DRIZZLE   63  61  94 NW12      29.86R
MILWAUKEE/TIMM RAIN      64  61  88 N15       29.85R
RACINE         CLOUDY    72  68  87 W6        29.82S
BURLINGTON     CLOUDY    64  63  96 NW15G22   29.82F
KENOSHA        CLOUDY    72  68  87 W10       29.81F
FOND DU LAC    LGT RAIN  61  58  90 N17G24    29.91R FOG
SHEBOYGAN      LGT RAIN  59  58  96 N3        29.89R FOG
WEST BEND      DRIZZLE   61  59  94 N6        29.88R
JUNEAU         LGT RAIN  59  57  96 N16G22    29.91R
$$

LSZ147-162-070800-
LAKE SUPERIOR

STATION/POSITION TIME  TEMP    WIND        PRES    WAVE
                       AIR SEA DIR/SP/G            HT/PER
                 (UTC) (F)     (DEG/KT/KT) (MB)    (FT/S)
W MID LAKE BUOY  0550   46 39  320/  8/  8 1015.8R   1
DEVILS ISLAND    0600   57     330/ 14/ 16 1016.9R
PORT WING        0640   58     320/ 11/ 13 1017.6R
SAXON HARBOR     0600   60     340/ 12/ 16 1016.3
$$

LMZ867-665-643>646-070800-
LAKE MICHIGAN

STATION/POSITION TIME  TEMP    WIND        PRES    WAVE
                       AIR SEA DIR/SP/G            HT/PER
                 (UTC) (F)     (DEG/KT/KT) (MB)    (FT/S)
CHAMBERS ISLAND  0600   61     340/ 19/ 23 1012.2R
N MID LAKE BUOY  0550   56 56  320/ 17/ 19 1010.7R   3/ 6
NORTHPORT PIER   0613   60     350/ 18/ 25 1011.5S
SISTER BAY       0614   58     360/ 17/ 25   N/A
ALGOMA LAKESHORE 0611          360/  7/ 12   N/A
KEWAUNEE LAKESHO 0600   60      10/  9/ 17 1011.0R
SHEBOYGAN LAKESH 0600   58     360/ 21/ 22 1011.1R
PORT WASHINGTON  0640   61      30/ 10/ 13 1011.9R
ATWATER BUOY     0600   69 59  220/  6/  6 1010.9S
MILWAUKEE LAKESH 0600   72     250/  3/  3   N/A
KENOSHA   LAKESH 0600   74     250/ 11/ 14 1009.1F
$$

TC  - TEMPERATURE IN CELSIUS
VSB - VISIBILITY IN STATUTE MILES
WCI - WIND CHILL INDEX
HX  - HEAT INDEX




USA.gov is the U.S. government's official web portal to all federal, state and local government web resources and services.